Location: ????????
(55.0559°N, 39.1270°E)
Time: 00:07:23
(UTC+00:00)

MOS 1 Rocket - Pass Details

Date: 15 November 2025
Orbit: 610 x 813 km, 97.4° (Epoch: 12 December)

Event Time Altitude Azimuth Distance (km) Brightness Sun altitude
Rises 04:07:02 0° 16° (NNE) 3,104 6.6 -7.0°
Reaches altitude 10° 04:09:17 10° 20° (NNE) 2,213 5.9 -6.7°
Maximum altitude 04:14:06 59° 100° (E) 864 4.2 -6.1°
Drops below altitude 10° 04:19:10 10° 180° (S) 2,320 6.3 -5.4°
Sets 04:21:34 0° 184° (S) 3,267 7.1 -5.1°
